Regional Weather Roundup
Issued by NWS

Home | Current Version | Previous Version | Graphics & Text | Print | Product List | Glossary On
Versions: 1 2 3 4 5 6 7 8 9 10 11 12 13 14 15 16 17 18 19 20 21 22 23 24 25 26 27 28 29 30 31 32 33 34 35 36 37 38 39 40 41 42 43 44 45 46 47 48 49 50
000
ASUS43 KFSD 220910
RWRSD

WEATHER ROUNDUP FOR SOUTH DAKOTA
NATIONAL WEATHER SERVICE SIOUX FALLS SD
400 AM CDT TUE JUL 22 2014

NOTE: "FAIR" INDICATES FEW OR NO CLOUDS BELOW 12,000 FEET WITH NO
SIGNIFICANT WEATHER AND/OR OBSTRUCTIONS TO VISIBILITY.


SDZ001>005-009-010-012>017-221000-
NORTHWEST AND NORTH CENTRAL SOUTH DAKOTA

CITY           SKY/WX    TMP DP  RH WIND       PRES   REMARKS
BUFFALO          N/A     61  60  97 N10       30.05R
FAITH            N/A     64  60  87 N7        30.07R
MOBRIDGE       MOCLDY    63  62  97 NE8       29.99F
$$

SDZ012>016-024>037-041>051-057-063-072>074-221000-
SOUTHWEST AND SOUTH CENTRAL SOUTH DAKOTA

CITY           SKY/WX    TMP DP  RH WIND       PRES   REMARKS
RAPID CTY ARPT PTCLDY    63  60  90 N5        30.11S
PIERRE         MOCLDY    65  63  93 N10       29.97F
CUSTER         MOCLDY    61  55  81 CALM      30.25R
ELLSWORTH AFB  MOCLDY    68  64  88 CALM      30.11R
PHILIP         PTCLDY    65  63  93 SW3       30.05R
PINE RIDGE     CLEAR     66  62  87 E6        30.13R
WINNER         LGT RAIN  69  64  84 W8        30.05F
$$

SDZ004>011-016>023-039-040-221000-
NORTHEAST SOUTH DAKOTA

CITY           SKY/WX    TMP DP  RH WIND       PRES   REMARKS
ABERDEEN       CLEAR     64  62  93 NW13      29.99R
WATERTOWN      MOCLDY    67  62  84 N9        29.93R
SISSETON         N/A     66  64  93 N13       29.91R
$$

SDZ017-020-022-023-036>040-048>070-221000-
SOUTHEAST SOUTH DAKOTA

CITY           SKY/WX    TMP DP  RH WIND       PRES   REMARKS
SIOUX FALLS    CLEAR     76  69  79 N9G18     29.89R
HURON          LGT RAIN  68  63  84 NW15G26   30.01R
CHAMBERLAIN    LGT RAIN  68  64  89 NE8       30.04F
MITCHELL       CLEAR     69  63  81 NW26G36   30.04R
YANKTON        PTCLDY    75  72  88 NW15      29.87R
$$

ABBREVIATIONS USED IN REMARKS
   TC - TEMPERATURE IN CELSIUS
  WCI - WIND CHILL INDEX
   HX - HEAT INDEX
  VSB - VISIBILITY



USA.gov is the U.S. government's official web portal to all federal, state and local government web resources and services.